GFSFLT1_sfc_wetblb_003.txt.gz
Wetbulb
64.01 63.31 62.64 63.09 62.77 62.68 61.71 61.94 62.30 63.54 63.10 63.38 63.97 62.53 62.02 62.44 63.30 64.05 64.69 64.35 63.68 63.88 64.05 63.38 62.86 62.84 62.31 62.45 62.69 62.60 61.84 62.07 62.19
63.86 63.73 63.99 64.08 63.79 62.93 62.19 62.15 62.08 62.77 62.53 63.08 63.04 61.71 61.46 61.81 62.84 63.66 64.30 63.28 63.35 63.36 62.73 62.44 62.23 61.67 61.61 61.39 61.05 61.29 60.71 60.40 60.47
63.56 64.27 64.94 64.43 63.48 62.44 61.53 61.37 62.06 62.44 62.42 62.16 62.12 60.76 61.23 61.02 61.59 62.91 64.01 62.96 62.59 62.43 61.52 61.33 61.30 61.35 60.82 60.49 59.90 60.24 59.79 59.37 58.93
65.12 65.46 65.19 64.45 62.46 61.45 59.81 59.46 60.37 62.03 62.63 61.93 61.87 60.62 60.71 60.43 61.20 61.11 62.43 62.79 61.36 61.35 60.12 59.76 60.19 60.35 60.68 59.57 58.76 58.64 58.75 58.60 58.46
65.14 64.39 64.95 63.71 61.85 60.12 58.35 59.21 60.86 61.75 60.98 61.14 61.07 60.92 60.78 59.57 61.45 61.64 62.48 61.87 60.81 60.04 59.31 58.54 58.70 58.79 58.79 58.99 58.15 57.79 57.88 58.10 58.25
65.17 64.27 63.63 62.45 61.83 59.87 58.68 58.85 58.99 58.90 59.88 60.16 61.82 61.96 58.49 59.65 61.09 61.82 62.88 61.71 61.06 59.58 58.72 57.81 57.88 58.38 58.24 58.49 58.65 58.77 58.41 58.23 58.28
64.11 64.00 63.58 63.10 62.63 61.51 60.21 59.55 59.70 59.70 58.14 59.28 61.73 58.64 58.38 57.53 60.20 61.33 62.61 62.34 62.40 61.66 60.41 59.01 58.54 58.74 59.09 59.45 59.41 59.71 59.67 59.61 59.42
63.51 63.19 62.55 62.12 62.85 61.58 60.88 60.33 58.31 58.31 58.30 57.59 59.58 58.55 58.01 56.32 57.43 61.34 62.03 62.06 63.00 62.85 62.50 60.96 60.21 60.00 60.02 60.21 60.26 60.28 60.22 60.27 60.54
62.52 62.61 62.59 61.61 62.09 60.93 60.93 59.96 59.77 57.95 57.15 56.55 55.89 56.43 56.64 56.41 55.30 58.44 62.63 62.06 62.72 62.93 62.91 62.43 60.82 60.53 60.77 61.17 61.09 60.95 60.96 60.94 60.88
61.94 61.97 62.03 61.35 61.44 60.88 60.00 59.33 59.62 59.84 58.45 56.89 55.41 55.03 55.01 56.20 56.36 55.59 60.72 61.44 61.07 61.84 61.92 62.22 61.92 61.28 61.57 61.70 61.72 61.70 61.65 61.68 61.63
61.72 61.35 61.56 61.69 61.97 61.66 60.91 60.17 59.79 60.16 60.37 57.61 56.64 55.43 55.32 55.44 56.03 56.32 57.76 59.94 58.81 58.82 59.96 60.84 61.47 61.84 61.92 62.13 62.03 61.92 61.83 61.90 61.91
62.69 61.56 61.89 62.13 62.34 62.06 61.70 61.07 60.78 60.18 60.50 58.86 57.17 56.80 56.25 55.95 55.22 55.51 55.92 57.37 59.14 59.21 59.07 59.73 60.49 61.15 61.80 62.19 62.18 62.01 62.20 62.36 62.41
63.49 62.42 61.58 62.33 62.55 62.07 61.51 61.10 60.43 60.28 59.60 59.12 59.20 58.36 57.40 56.57 56.31 56.13 55.59 55.50 54.66 58.11 59.89 59.61 59.97 60.53 61.15 61.86 62.17 62.14 62.80 63.56 63.70
63.95 63.77 62.91 62.23 62.40 62.22 61.52 60.83 60.65 59.92 59.84 59.04 59.07 59.67 59.39 59.15 58.10 57.34 56.63 56.47 55.70 55.07 58.06 59.79 59.98 60.50 60.04 61.19 61.83 61.89 61.71 63.08 63.36
64.48 64.08 63.86 63.30 61.96 62.24 62.06 61.01 61.12 60.66 60.11 58.97 58.39 59.26 59.35 59.54 59.43 59.19 58.82 57.46 56.47 56.40 55.48 55.42 57.03 58.90 59.18 59.72 60.87 61.43 61.57 62.51 63.13
64.84 64.26 64.02 64.49 62.84 62.01 62.28 61.80 60.73 60.36 61.01 58.87 58.76 59.10 59.28 58.92 59.28 59.78 59.23 58.08 57.11 56.41 55.98 55.76 55.98 56.13 60.45 60.29 59.91 60.49 61.39 61.59 61.52
65.53 64.88 64.35 64.67 64.09 63.28 62.43 61.98 60.78 60.65 61.13 57.52 56.58 53.10 55.52 57.84 58.92 59.44 58.80 58.55 58.30 57.14 56.59 55.99 55.76 55.50 55.72 56.94 59.89 59.42 60.08 61.42 61.70
65.88 65.59 65.24 65.02 64.90 63.87 63.63 62.89 61.17 58.93 60.38 60.22 56.84 52.44 50.76 53.79 56.90 56.33 55.67 55.63 55.28 55.82 55.70 56.37 57.45 57.36 56.35 57.27 57.33 58.08 58.07 59.02 60.91
65.76 65.79 65.82 65.55 65.45 64.68 64.32 63.82 62.43 61.49 59.09 60.19 59.04 58.61 57.00 53.01 51.64 55.66 55.53 55.43 55.68 56.77 56.82 56.76 58.04 58.15 57.21 57.50 57.16 57.39 57.58 57.69 59.12
65.79 65.70 65.72 65.62 65.58 65.55 65.03 64.26 63.16 62.85 60.97 60.08 58.46 57.39 56.64 56.49 53.85 51.44 53.41 55.35 56.11 56.45 56.75 57.78 58.28 58.80 58.22 57.97 57.30 57.70 57.39 57.69 59.07

GFSFLT1_sfc_wetblb_006.txt.gz
Wetbulb
64.13 62.94 62.28 63.05 62.58 62.50 61.90 62.12 62.67 62.81 63.16 63.39 63.29 62.05 62.14 63.24 58.74 61.39 63.04 60.21 64.10 64.30 63.63 63.38 63.05 62.96 62.72 62.06 62.43 61.69 61.57 61.69 61.13
63.96 63.51 63.31 63.58 63.28 62.59 62.09 62.00 62.17 62.85 62.55 63.53 62.82 61.55 62.04 59.90 57.82 59.81 59.46 59.80 63.63 63.03 62.39 62.54 62.33 61.71 61.57 60.58 61.26 60.59 60.30 60.02 60.01
63.63 63.97 65.07 64.40 63.69 62.72 61.87 61.83 62.33 62.67 62.44 62.40 62.15 60.81 62.18 58.97 57.52 59.55 58.75 63.44 62.79 62.16 61.49 61.63 61.72 61.38 60.89 59.69 59.68 59.64 59.46 59.33 58.95
64.78 64.94 65.29 65.09 62.93 61.92 61.03 60.41 61.52 62.83 62.92 62.35 62.35 60.85 61.95 57.61 57.13 59.75 59.01 64.13 61.84 61.54 60.19 60.32 60.82 60.53 60.19 59.08 58.23 58.15 58.35 58.49 58.36
65.50 65.22 65.51 64.49 62.82 61.44 59.75 59.70 60.71 62.41 63.14 62.72 61.87 62.22 61.67 54.79 56.17 58.01 59.70 63.23 61.80 60.86 59.68 58.89 59.01 59.06 58.71 58.57 58.33 58.05 57.86 57.84 57.95
62.91 63.78 64.66 63.92 62.88 61.41 59.81 60.11 60.74 61.09 61.55 61.56 62.32 62.51 56.82 52.68 55.77 58.08 63.95 62.83 62.23 61.07 60.13 58.73 58.50 58.79 58.56 58.48 58.75 59.15 59.03 58.83 58.83
62.48 62.90 64.09 63.44 63.17 62.19 60.70 60.24 60.44 60.61 53.89 53.93 61.09 57.57 54.43 52.56 54.37 58.31 64.15 63.11 63.22 62.55 61.34 60.09 59.31 59.29 59.48 59.65 59.85 60.18 60.31 60.19 60.29
59.60 59.72 60.27 59.58 61.75 59.45 59.21 57.80 56.84 54.16 52.83 53.17 55.40 54.92 52.78 50.82 50.94 58.42 64.14 63.16 63.40 63.87 63.29 62.41 61.14 60.68 60.48 60.60 60.87 60.85 60.82 60.83 60.80
58.17 57.92 59.09 57.80 58.18 57.82 56.58 55.12 55.09 53.02 52.61 51.69 50.59 51.72 51.54 51.02 49.63 53.93 63.43 63.30 62.85 63.44 63.95 63.82 63.17 61.86 61.44 61.46 61.55 61.65 61.64 61.64 61.65
57.05 57.15 57.53 56.72 56.60 56.21 55.38 54.93 54.16 53.60 52.33 51.66 51.08 50.10 49.42 49.89 50.30 48.55 61.46 63.52 63.01 62.66 63.18 63.39 63.75 63.50 62.36 62.23 62.36 62.32 62.29 62.24 62.22
57.39 56.64 57.08 56.73 56.66 56.62 55.94 54.60 54.12 54.33 54.98 53.78 51.59 50.34 50.13 50.08 49.86 50.24 51.79 62.10 62.53 61.13 61.48 62.24 62.68 63.02 63.37 62.94 62.65 62.69 62.69 62.61 62.55
58.49 56.82 56.28 57.20 57.58 57.70 56.98 56.24 55.50 54.44 55.43 54.69 53.84 51.33 50.06 49.98 49.99 50.14 50.03 54.15 60.43 61.06 60.79 60.90 61.21 61.80 62.54 63.06 63.01 62.75 64.18 64.32 64.23
59.09 58.10 56.86 57.54 57.57 57.24 56.73 56.41 55.50 54.98 54.45 54.02 54.23 52.96 51.69 50.79 50.18 50.20 50.76 50.74 53.00 58.25 61.31 61.76 61.16 61.25 61.98 62.77 63.05 62.88 63.94 64.19 64.29
60.33 59.84 58.89 57.74 57.22 57.30 57.19 56.41 55.49 54.66 54.64 54.63 53.98 54.04 53.69 52.69 53.84 51.07 50.39 49.96 51.47 51.03 56.85 59.91 60.47 61.31 61.39 61.99 62.73 62.79 63.75 63.95 64.07
60.69 60.59 60.36 59.17 57.61 57.56 57.31 56.17 55.89 55.46 55.16 57.36 56.78 54.36 54.77 54.66 54.20 53.95 54.72 52.93 51.96 50.85 50.39 52.11 56.51 59.73 61.16 61.00 61.46 61.98 62.27 63.64 63.83
61.33 61.00 60.58 60.56 59.21 58.04 58.21 57.83 56.47 56.46 55.67 54.15 53.88 54.17 54.82 53.86 54.10 54.00 54.27 54.53 53.95 52.01 52.90 52.76 52.55 53.73 60.41 61.27 61.06 61.15 61.68 61.92 62.90
62.24 61.47 60.91 60.67 60.54 59.87 58.37 58.07 57.22 57.27 56.57 54.98 52.26 51.67 52.43 55.00 56.21 56.77 56.70 56.40 56.69 55.62 54.05 52.02 52.03 52.20 52.99 55.28 60.58 61.91 61.15 61.82 62.35
62.89 62.41 61.83 61.21 61.12 60.66 60.37 58.91 57.60 56.57 57.13 58.39 55.73 50.98 49.09 48.83 52.16 54.39 55.96 56.28 53.43 53.16 52.91 52.59 52.31 52.02 52.41 54.87 56.36 59.39 60.73 60.87 62.73
63.27 63.10 62.56 62.11 62.09 61.43 61.41 61.50 60.10 59.50 57.64 58.17 58.65 57.80 53.67 50.44 48.85 50.83 50.47 51.26 52.03 52.29 52.10 53.12 52.98 54.41 54.62 55.18 55.14 56.42 58.66 59.99 61.35
63.15 63.05 62.56 62.47 62.77 62.88 62.26 62.34 61.85 61.22 59.54 58.62 57.92 57.45 56.37 55.66 52.96 51.09 52.81 52.93 53.23 53.15 54.12 54.55 54.14 55.17 55.97 55.46 55.58 57.95 59.87 60.86 61.46

GFSFLT1_sfc_wetblb_012.txt.gz
Wetbulb
63.87 63.34 63.51 63.21 62.86 62.76 63.08 62.91 62.84 63.44 63.43 63.78 63.61 61.99 62.17 62.11 55.79 59.01 61.88 58.38 63.77 63.28 62.86 62.76 62.44 61.60 62.02 61.58 60.90 60.84 60.65 60.67 60.82
64.40 63.60 63.35 63.57 63.34 62.99 62.44 63.08 63.22 62.97 63.27 64.19 63.75 62.82 62.13 57.35 54.02 57.64 58.01 58.65 64.25 63.63 63.20 62.25 61.54 61.19 60.39 61.28 60.42 59.96 59.51 59.36 59.37
64.84 64.27 64.25 64.53 64.53 64.04 63.25 62.82 63.33 63.82 63.69 63.97 64.55 63.27 62.86 58.01 54.09 57.96 56.85 61.78 64.06 63.43 62.72 62.53 61.96 61.09 60.11 60.34 60.22 59.73 59.27 58.83 58.58
65.34 64.52 65.20 65.47 65.27 64.47 63.73 62.90 62.89 63.55 63.84 63.66 64.15 63.84 63.04 56.81 54.24 57.55 56.84 63.84 64.36 64.02 62.83 62.65 62.63 62.02 61.01 59.78 60.01 59.79 59.65 59.32 58.95
65.92 66.26 65.71 65.98 65.66 64.37 63.62 62.94 62.16 62.76 63.83 63.87 63.72 64.38 63.64 56.63 53.37 53.59 56.37 64.03 64.11 64.14 62.52 62.22 62.60 62.27 61.84 60.81 60.17 59.74 59.64 59.94 60.07
63.04 64.36 65.15 66.39 65.61 64.82 63.92 62.81 61.69 62.43 63.36 64.46 64.62 63.80 57.97 54.94 52.54 51.59 60.37 64.12 64.53 64.33 63.34 62.19 61.80 61.84 61.52 60.97 60.88 60.86 60.72 60.54 60.42
61.58 62.52 64.70 65.63 65.67 65.07 64.17 63.21 62.12 62.28 56.90 56.83 62.08 58.57 55.77 54.10 53.04 51.77 59.48 64.71 65.78 65.19 63.76 62.78 61.87 61.49 61.50 61.35 61.15 61.29 61.47 61.73 61.62
58.04 58.69 60.42 61.90 62.58 60.04 61.08 58.58 56.75 54.91 54.05 52.52 51.09 52.72 53.52 52.92 52.10 53.34 59.30 62.99 66.16 65.81 64.45 63.48 62.62 61.81 61.65 61.82 61.98 62.07 62.04 62.24 62.27
56.80 58.01 59.15 59.46 58.89 57.75 56.63 55.62 54.48 53.84 53.19 51.79 49.89 49.37 51.03 52.67 51.92 50.17 57.58 62.29 66.00 65.90 65.46 64.63 64.11 63.50 62.93 62.64 62.62 62.63 62.63 62.65 62.67
56.23 57.61 58.18 58.31 57.33 56.74 55.70 55.06 54.99 53.70 52.76 51.32 50.28 50.66 51.05 52.05 51.84 49.45 55.01 59.50 65.13 65.42 65.59 65.59 65.35 65.38 65.12 64.57 63.77 63.28 63.15 63.17 63.14
56.45 56.81 57.38 57.25 56.84 56.58 56.64 55.58 55.18 54.31 53.26 52.52 50.58 49.69 49.56 49.63 49.97 49.66 49.84 56.73 62.94 65.22 64.03 64.67 65.20 65.40 65.47 65.54 65.64 65.84 64.79 63.90 64.07
58.10 56.48 55.77 56.01 55.03 55.47 55.16 54.31 53.24 52.51 51.96 51.58 51.45 51.09 49.86 49.58 48.63 48.39 48.25 49.50 57.95 63.27 63.62 63.99 65.14 65.59 64.94 65.32 65.68 66.70 66.47 65.87 65.46
56.68 56.34 55.74 54.78 54.43 54.22 53.47 53.85 53.07 52.29 51.80 52.72 51.85 53.14 52.75 52.14 50.59 50.26 49.64 48.93 49.73 54.20 61.65 63.29 64.09 64.75 64.59 64.13 64.61 66.04 65.99 65.80 65.87
56.93 56.63 56.91 55.42 54.51 54.65 54.71 54.71 53.93 54.64 53.76 53.68 53.91 53.39 53.49 53.70 54.07 51.19 50.24 49.44 50.30 49.80 53.59 58.10 60.93 62.04 63.66 63.12 63.08 64.85 65.26 64.94 65.07
57.58 58.01 57.30 56.45 55.59 55.44 53.92 54.57 54.15 54.97 55.32 55.32 55.57 55.58 55.02 55.54 55.13 54.90 54.99 52.97 50.97 50.30 50.59 50.72 52.87 58.84 61.41 63.00 63.09 64.13 64.41 64.18 64.37
57.78 58.44 58.20 56.86 56.97 57.61 56.84 55.49 54.63 54.70 52.81 51.75 54.43 54.48 54.57 54.74 55.45 55.75 55.04 55.23 54.51 52.34 51.12 50.83 50.79 51.67 58.16 60.88 62.66 63.50 64.13 64.23 64.10
59.43 58.90 59.00 58.29 57.73 57.61 57.42 55.63 55.58 55.28 54.02 53.00 53.65 52.02 54.71 55.65 55.59 56.09 55.55 55.33 55.85 54.97 53.47 52.53 51.82 51.45 51.08 52.55 59.12 61.39 63.17 63.00 63.86
60.57 60.72 59.80 59.82 58.16 58.39 58.19 57.11 55.25 55.51 57.26 55.34 54.83 51.72 50.68 49.30 50.47 52.60 55.10 55.40 54.99 54.71 54.69 54.50 54.06 53.99 52.92 53.69 54.26 57.22 59.73 61.82 62.93
60.32 61.43 61.05 60.28 59.95 58.51 58.99 59.14 57.75 57.13 55.97 58.07 56.57 57.04 56.56 52.85 52.24 53.11 50.50 52.86 53.76 54.42 54.88 55.02 55.33 55.21 54.06 54.40 54.39 55.38 57.21 59.63 62.33
56.67 57.68 58.66 59.53 60.47 60.02 59.78 60.00 59.15 59.11 58.44 57.87 57.61 56.87 55.96 56.20 54.24 52.45 54.34 54.66 52.90 53.76 53.89 54.60 54.99 55.15 54.97 54.42 53.92 55.81 57.69 59.83 61.59

GFSFLT1_sfc_wetblb_015.txt.gz
Wetbulb
64.48 63.68 63.33 63.30 62.92 62.95 63.98 63.44 63.54 63.27 63.54 64.20 63.91 62.98 61.82 60.71 54.90 58.83 61.10 58.96 63.22 63.52 62.50 62.22 62.02 61.88 62.04 61.29 60.87 60.70 60.06 60.25 60.31
64.58 63.61 63.33 63.69 63.52 63.35 62.82 63.84 63.74 63.66 63.56 63.67 64.29 63.46 63.10 56.41 53.72 57.28 58.52 57.58 64.92 64.03 63.10 62.84 62.27 61.51 61.37 61.55 60.77 60.16 59.87 59.84 59.52
64.76 64.88 64.07 64.20 64.17 63.85 63.39 63.00 63.53 63.94 63.81 64.06 64.56 64.39 64.01 58.34 53.40 55.45 57.25 60.15 65.09 64.43 64.13 63.56 62.64 62.21 61.27 61.95 61.35 60.72 60.19 59.60 59.26
64.72 65.07 64.57 65.24 65.28 65.27 64.74 64.00 63.33 63.33 64.06 64.03 63.94 65.30 64.55 57.24 54.17 55.71 56.51 60.75 65.50 64.56 63.80 63.39 63.58 62.95 62.32 61.48 61.67 61.17 60.79 60.35 59.87
65.83 66.26 65.44 65.40 66.04 65.71 64.99 64.42 63.67 63.10 63.35 64.14 64.07 64.47 64.55 58.14 54.55 53.00 55.68 62.51 65.55 65.11 64.50 63.56 63.55 63.64 63.03 61.90 61.08 61.01 60.96 61.03 60.74
62.19 63.86 65.13 65.07 65.78 66.03 65.55 64.83 64.07 63.59 63.32 64.14 64.62 64.37 58.92 56.16 53.96 51.80 57.13 62.88 65.38 65.42 64.65 64.09 63.38 63.53 63.33 62.93 62.14 61.60 61.17 61.05 61.06
60.56 61.81 64.73 65.08 65.57 65.99 65.50 65.06 64.46 63.18 56.46 56.44 61.29 59.55 57.38 54.97 54.06 52.71 58.48 61.53 65.06 65.70 65.30 64.86 63.67 63.19 63.01 63.07 62.60 62.29 62.27 62.17 62.16
57.99 57.80 58.38 60.24 61.72 61.06 62.10 60.21 58.85 55.28 54.50 54.17 53.10 53.23 53.40 54.09 53.54 54.61 59.06 61.39 63.84 65.81 66.04 65.67 64.72 63.70 63.03 62.88 62.93 62.62 62.39 62.48 62.60
56.06 56.34 56.71 57.00 58.70 58.26 57.44 56.50 55.86 54.26 53.20 52.19 51.70 50.36 49.78 51.15 52.64 52.04 57.72 59.98 62.22 64.04 65.87 66.32 65.88 64.66 63.94 63.32 63.02 62.92 62.88 62.90 62.82
56.17 55.90 55.91 56.46 57.04 56.73 56.17 55.48 55.41 54.12 53.31 52.83 51.70 51.71 50.17 49.62 51.06 51.14 55.03 58.12 60.23 62.19 64.40 66.40 66.40 66.01 65.41 64.81 64.08 64.47 63.69 63.37 63.38
56.60 55.93 55.94 56.40 56.49 56.94 56.84 56.42 55.69 54.98 53.83 53.75 52.46 51.44 50.63 49.81 50.75 51.88 51.83 57.18 59.51 60.90 62.93 64.22 65.20 65.82 66.46 66.44 66.93 66.57 66.25 65.20 65.01
58.35 56.48 55.60 56.36 56.26 56.54 55.94 55.16 54.36 53.55 53.53 52.95 53.47 52.02 50.75 50.54 49.73 49.66 49.31 50.43 56.11 59.25 61.55 62.76 64.86 66.23 65.80 65.92 67.40 67.29 66.91 66.72 66.38
57.16 57.26 56.80 55.97 54.46 54.95 54.50 54.59 53.78 53.27 53.24 53.45 52.87 53.03 52.89 52.22 50.88 50.91 50.60 50.05 49.74 53.37 57.76 61.53 63.41 65.30 65.77 64.09 65.38 66.49 66.43 66.28 65.87
57.25 56.83 57.32 55.71 54.99 54.37 54.42 54.03 53.43 53.81 53.03 52.57 53.54 53.02 52.71 53.31 54.04 53.40 52.80 51.83 51.85 50.95 53.65 56.72 59.16 61.53 63.50 63.82 63.97 65.39 65.07 64.89 65.54
56.58 57.21 56.87 55.89 55.63 55.48 53.93 54.40 53.94 54.22 54.77 54.64 54.74 55.02 55.09 54.86 55.06 54.96 55.15 54.17 52.71 51.94 51.87 52.21 52.78 56.91 60.07 62.44 63.36 64.75 64.72 64.33 64.38
56.45 57.26 57.25 56.31 56.25 57.05 56.96 54.85 54.26 54.23 53.10 53.45 54.77 55.41 55.46 55.04 55.33 56.15 56.05 55.67 55.59 54.96 52.42 52.08 52.22 52.64 57.68 59.39 61.06 63.30 64.70 64.70 64.36
58.75 57.63 58.12 57.99 56.82 56.67 56.62 55.90 55.66 55.49 53.64 54.16 54.22 52.30 54.46 54.39 54.90 55.54 55.50 55.43 56.09 55.55 55.12 53.68 52.14 51.99 52.24 52.39 57.28 60.16 61.89 62.99 64.92
58.43 58.93 58.88 58.73 57.59 57.15 57.92 56.65 55.27 55.40 56.95 54.32 54.75 52.05 51.22 52.06 52.79 52.23 54.63 55.04 55.00 55.15 55.22 54.97 53.76 52.82 52.54 53.31 53.98 56.20 58.07 60.30 62.78
53.13 53.36 53.96 55.30 57.91 57.85 57.97 58.62 57.28 56.80 55.67 57.50 56.66 56.38 56.45 53.52 53.17 56.51 53.54 54.19 54.46 54.97 55.11 54.79 54.55 54.45 54.05 54.69 54.81 55.39 56.73 58.62 61.20
50.25 50.06 49.65 50.25 51.22 52.24 54.33 57.31 58.90 59.51 58.04 57.66 57.75 57.70 56.18 55.84 53.74 52.02 54.78 56.80 54.67 55.16 54.91 55.44 55.44 55.65 55.52 55.03 55.04 56.61 58.11 59.92 61.38

GFSFLT1_sfc_wetblb_018.txt.gz
Wetbulb
64.65 64.36 63.45 63.21 63.27 63.22 63.57 64.47 63.90 63.76 64.19 64.22 64.50 63.97 62.55 61.49 54.74 55.96 58.96 60.39 63.67 64.14 63.22 63.18 62.89 62.35 62.34 61.83 61.28 61.73 61.19 61.06 61.30
64.68 64.16 63.24 63.53 63.55 63.50 63.32 63.78 64.51 64.09 64.11 64.29 64.41 64.43 63.95 56.87 53.83 54.14 58.56 59.39 64.27 64.81 63.63 63.10 62.76 62.05 61.97 62.16 61.49 61.30 61.07 61.04 60.89
65.13 64.89 64.67 64.02 64.31 64.15 64.20 63.78 63.37 64.11 64.25 64.00 64.21 64.78 64.84 59.00 53.77 53.48 57.10 60.39 64.44 65.94 64.83 64.10 63.42 62.81 62.15 62.66 62.33 61.72 61.16 60.91 60.75
65.59 64.88 64.99 64.67 65.00 65.29 65.35 64.94 64.42 63.77 63.76 64.12 64.20 64.88 64.97 58.42 54.89 54.26 55.51 61.11 64.81 66.36 65.09 64.46 64.33 63.83 63.17 62.34 62.71 62.38 61.82 61.43 61.00
65.23 66.33 66.06 64.89 65.21 66.01 65.85 65.57 65.11 64.57 63.74 63.55 64.43 64.71 64.57 59.45 56.64 54.22 53.01 61.91 65.02 65.95 66.12 65.06 64.54 64.29 64.22 63.44 62.47 62.55 62.37 62.16 61.81
61.42 63.04 64.95 65.40 65.20 65.20 65.87 65.85 65.45 65.29 64.51 63.66 63.93 64.24 59.35 56.96 56.38 54.29 57.60 61.02 65.03 65.87 66.18 65.65 65.20 64.40 64.20 64.14 63.77 62.82 62.39 62.38 62.39
60.25 60.69 63.25 64.50 65.36 65.12 65.42 65.43 65.88 64.54 57.79 55.57 58.81 57.21 57.36 56.59 55.36 54.66 60.24 61.87 63.31 65.10 65.65 65.95 65.59 65.17 64.23 64.16 64.20 63.99 63.38 62.97 62.55
57.46 56.96 56.99 57.20 60.13 59.66 61.13 60.32 59.14 57.46 55.55 54.21 53.40 53.32 52.43 53.64 54.85 56.25 60.52 62.22 63.03 64.16 64.67 65.50 66.31 65.95 65.43 64.41 64.01 63.99 63.78 63.43 63.30
56.23 55.81 55.96 55.69 56.58 57.02 57.42 57.56 57.33 56.06 55.10 53.25 52.11 51.66 50.86 50.93 51.55 52.62 58.11 60.66 62.44 62.84 64.29 64.80 65.57 67.01 66.79 65.85 64.75 64.66 64.70 63.72 63.42
56.41 55.97 55.42 55.45 55.91 56.12 56.37 56.07 56.51 55.50 54.78 54.24 52.77 52.85 51.79 50.63 50.78 50.56 54.64 57.51 59.76 61.77 62.67 63.67 64.68 65.42 67.51 67.57 66.91 66.25 65.86 64.93 65.23
56.71 56.33 55.91 55.34 55.95 56.75 56.50 56.56 56.35 56.05 54.84 54.75 53.46 53.39 52.93 52.06 50.96 50.65 50.59 56.22 58.43 60.78 62.55 63.56 63.28 63.87 65.11 67.98 67.76 67.30 66.94 66.39 65.99
57.57 56.36 55.77 56.24 55.99 56.22 55.89 55.54 55.57 55.23 54.76 54.47 54.77 54.07 53.04 52.62 51.75 50.81 51.04 51.99 56.89 58.72 61.59 62.60 63.17 64.07 63.97 64.88 66.98 67.29 66.83 66.53 66.18
56.81 57.02 56.88 57.15 54.89 55.10 54.85 55.10 54.39 54.12 54.17 54.17 54.40 54.10 53.96 53.43 52.61 52.43 52.19 51.78 51.33 53.94 57.83 60.25 62.03 63.54 63.49 63.88 65.06 66.43 66.01 66.08 66.23
56.84 56.92 57.26 56.08 54.61 53.69 54.01 54.36 53.50 54.98 54.66 53.12 53.82 53.75 52.91 53.35 54.25 53.20 52.65 52.50 53.09 52.78 54.51 57.19 59.05 61.11 63.28 63.74 64.30 65.80 65.45 64.95 65.07
55.78 55.99 55.91 55.51 55.66 55.54 54.78 54.45 56.11 54.63 55.84 55.81 55.76 55.91 55.73 54.70 53.92 54.33 54.89 54.60 54.15 53.16 53.06 53.59 54.30 57.37 59.96 62.27 63.83 65.58 65.71 64.91 64.54
56.03 55.60 55.80 55.86 55.41 56.15 57.46 57.24 55.31 55.51 56.20 53.19 54.18 55.37 56.16 55.71 55.38 55.60 55.30 55.31 55.56 54.90 54.08 53.54 53.73 53.70 58.14 59.38 60.74 62.71 64.46 65.35 65.12
55.65 56.14 56.39 56.69 56.35 55.90 55.45 54.68 56.00 56.48 55.74 54.26 54.78 52.88 54.70 54.99 55.47 55.56 55.22 55.13 56.00 55.74 55.48 55.12 53.33 53.01 53.27 53.66 58.06 60.33 61.65 63.16 64.23
50.28 50.18 50.36 51.09 53.54 54.87 55.73 55.85 56.34 55.71 57.40 55.98 54.57 52.35 51.72 55.09 55.54 52.87 54.31 54.65 54.97 55.28 55.62 55.52 55.16 54.22 53.05 54.30 55.03 56.83 58.75 60.97 63.23
48.98 48.73 48.23 47.89 48.58 47.92 48.66 50.38 52.63 54.72 54.26 57.01 57.39 56.50 55.69 51.96 51.33 56.57 57.21 53.28 53.89 54.67 55.38 55.39 55.32 55.18 54.47 54.62 54.52 55.17 57.00 59.33 62.21
47.82 47.66 47.16 47.00 47.70 47.13 47.05 47.53 48.12 48.75 49.20 50.88 52.77 53.38 53.95 54.39 52.93 50.17 53.00 55.78 57.29 56.99 55.93 55.67 55.78 55.71 55.57 55.12 54.93 56.40 57.79 59.82 62.15